Tracking 19817 objects as of 18-Aug-2019
HD Live streaming from Space Station
objects crossing your sky now

THORAD DELTA 1 DEB

Track THORAD DELTA 1 DEB now!
10-day predictions


NORAD ID: 8566
Int'l Code: 1974-089DD
Perigee: 1,338.7 km
Apogee: 1,467.9 km
Inclination: 101.6 °
Period: 113.7 minutes
Semi major axis: 7774 km
RCS: 0.0546 m2 (small)
Launch date: November 15, 1974
Source: United States (US)
Launch site: AIR FORCE WESTERN TEST RANGE (AFWTR)

Note: This is SATELLITE DEBRIS
aabbcc
Your satellite tracking list
Your tracking list is empty




NASA's NSSDC Master Catalog

Two Line Element Set (TLE):
1  8566U 74089DD  19228.69673565 +.00000014 +00000-0 +31019-3 0  9994
2  8566 101.6049 289.4822 0083082 015.2368 138.1795 12.66519120065928
Source of the keplerian elements: AFSPC